Theta_e
295 295 294 294 293 293 293 292 292 291 291 291 290 290 290 290 290 289 289 288 288 287 286 286 286 286 286 286 286 286 285 285 284 284 284 284 283 283 283 283 282 282
295 295 294 294 293 293 293 293 292 292 291 291 291 290 290 290 290 289 289 288 287 287 286 286 286 286 286 286 286 286 285 285 284 283 284 284 283 283 283 283 283 282
295 295 294 294 293 293 292 292 292 292 292 291 291 291 290 290 290 289 288 288 287 286 286 286 286 285 286 286 286 286 285 285 284 283 284 284 284 284 283 283 283 282
295 295 294 294 294 293 292 292 291 291 291 291 291 291 291 290 290 289 288 288 287 286 286 285 285 285 286 286 286 285 285 284 283 283 284 284 284 283 283 283 282 281
295 295 294 294 293 293 292 292 291 291 291 291 291 291 291 290 290 289 288 288 287 286 286 285 285 285 285 285 285 285 284 283 283 283 284 284 283 283 283 282 282 281
294 294 294 294 293 293 292 292 291 291 291 291 290 290 290 290 290 289 289 288 287 286 286 285 285 285 285 285 285 284 284 283 283 283 283 283 283 283 282 282 281 280
294 294 294 293 293 292 292 292 291 291 290 290 290 290 290 290 289 289 289 288 287 286 286 285 285 285 285 285 284 283 283 282 283 283 283 283 283 282 282 281 281 280
295 294 293 293 293 292 292 292 291 291 290 290 290 289 289 289 289 289 288 288 287 286 286 285 285 285 285 284 284 283 282 282 282 282 282 282 282 282 281 281 280 279
294 294 293 293 292 292 292 292 291 290 290 289 289 289 289 289 289 288 288 287 287 286 285 285 285 284 284 284 283 283 282 282 282 282 282 283 282 282 281 280 279 278
293 293 293 292 292 292 292 291 291 290 290 289 289 288 288 288 288 288 287 287 286 286 285 284 284 284 283 283 283 283 282 282 282 282 282 282 282 282 281 280 279 278
293 293 292 292 292 292 292 291 290 290 290 289 288 288 288 287 287 287 287 286 285 285 284 284 284 284 283 283 282 282 282 282 282 282 282 282 281 281 280 280 279 278
293 292 292 292 292 292 291 291 290 290 289 289 288 288 287 287 286 286 286 285 285 284 284 284 283 283 283 282 282 281 281 282 282 282 282 281 281 280 280 279 278 277
292 292 293 292 292 292 291 290 290 289 289 288 288 287 287 286 286 285 285 285 284 284 283 283 283 282 282 282 281 281 281 281 281 281 281 280 280 280 279 278 278 277
293 293 293 292 292 291 290 290 289 289 288 288 287 286 286 286 286 285 284 284 284 283 283 283 282 282 281 281 281 281 281 281 281 280 280 280 279 279 278 278 277 276
293 293 292 291 291 290 290 290 289 288 288 287 286 286 285 285 285 285 284 283 283 283 282 282 282 281 281 281 280 280 280 280 280 280 280 279 279 278 277 277 276 275
293 292 291 291 290 290 289 289 288 288 287 286 286 285 285 284 284 284 283 283 282 281 281 281 281 281 281 281 280 281 281 280 280 280 279 279 278 277 276 275 275 275
292 291 291 290 290 289 289 288 287 286 286 285 284 284 284 283 283 283 282 282 282 281 281 280 280 281 281 280 280 280 281 280 280 279 278 278 277 276 275 274 274 275
292 291 290 290 289 289 288 287 286 285 285 284 284 283 283 282 282 282 282 281 281 280 280 280 280 280 280 279 279 280 280 280 280 279 278 277 276 276 275 275 275 275
292 291 290 289 289 288 287 286 285 285 284 284 283 283 282 281 281 281 281 280 280 279 279 279 279 280 279 278 279 279 279 279 279 278 277 277 276 276 275 275 275 276
291 290 289 288 288 287 286 285 284 284 283 283 282 281 281 280 280 280 280 279 279 279 278 278 279 279 278 278 279 278 278 278 278 277 277 277 276 276 276 276 276 276
290 290 289 288 287 286 285 284 283 283 282 282 281 280 280 280 279 279 279 278 278 278 278 277 278 278 278 278 279 279 278 277 277 277 276 276 276 276 276 276 276 276
290 289 288 287 286 285 284 283 282 282 281 281 280 279 279 279 279 278 278 278 277 277 276 276 277 277 278 279 280 280 279 278 277 277 276 276 276 276 276 276 275 275
290 288 287 286 285 284 283 282 282 281 280 280 279 278 278 278 278 277 277 277 277 276 276 276 276 277 278 280 280 280 280 279 277 277 276 276 276 276 276 275 274 274
289 288 287 285 284 283 282 282 281 280 280 279 279 278 277 277 277 277 276 276 276 276 276 276 276 277 279 280 280 280 280 279 277 277 276 276 276 275 275 274 273 273
288 287 286 285 283 283 282 281 281 280 279 278 278 278 277 277 276 276 275 275 275 275 275 276 276 278 279 280 280 280 279 278 277 277 276 275 275 275 274 273 273 273
287 286 285 284 283 282 281 281 280 279 278 277 277 277 276 276 275 275 275 274 274 275 274 275 276 277 279 280 280 280 279 277 277 276 276 275 274 274 273 273 273 273
Wind_Speed
44 44 44 44 43 43 43 44 44 44 44 45 46 47 47 47 46 45 44 42 39 37 35 32 30 27 26 24 22 20 18 16 15 13 11 9 9 9 10 11 10 10
46 44 43 42 43 43 43 45 45 45 45 46 46 45 45 45 45 45 45 43 41 39 36 33 31 29 28 26 24 22 20 18 16 14 12 10 10 11 11 11 11 11
47 45 45 45 45 44 43 42 43 44 45 44 45 45 45 45 45 44 44 43 42 40 37 34 32 31 29 27 26 24 22 20 18 16 14 12 12 12 12 12 12 12
47 47 48 47 45 42 39 39 40 43 44 44 45 46 45 45 44 44 44 44 43 41 38 36 34 32 31 29 27 25 23 20 18 17 16 15 14 14 13 13 13 13
47 47 47 46 44 40 39 40 42 43 43 45 46 46 46 45 45 45 45 45 44 42 40 37 36 34 33 31 29 27 24 23 21 20 18 17 16 15 14 14 14 14
45 46 46 46 44 41 40 42 43 43 43 44 45 46 47 46 46 46 47 47 46 43 42 40 38 37 34 33 31 28 26 25 24 22 20 18 17 16 16 15 15 15
45 46 46 44 43 42 42 42 42 42 43 43 44 45 47 48 48 48 48 48 47 45 44 42 41 39 37 35 32 30 28 26 25 23 21 19 18 18 17 17 16 16
45 44 42 42 42 42 43 43 42 43 43 43 44 45 46 48 48 48 48 48 48 47 46 44 43 41 39 37 34 32 30 28 26 24 22 21 20 19 18 18 17 17
43 41 40 41 42 43 44 44 44 42 42 43 44 44 45 46 47 47 48 48 48 48 47 45 44 42 40 38 36 34 32 30 27 25 24 22 21 20 19 18 18 18
40 40 40 41 43 44 45 46 44 42 43 43 43 43 44 45 46 46 47 48 48 48 47 46 45 43 41 39 37 34 32 30 28 26 24 22 21 20 20 19 19 19
39 39 40 42 44 45 46 45 43 42 43 44 43 43 44 44 45 46 47 47 48 47 47 46 45 43 41 39 37 34 32 29 28 26 24 23 22 21 20 20 19 19
40 40 42 45 46 46 45 44 43 42 43 44 44 44 44 44 45 46 47 48 47 46 45 45 44 43 41 39 37 34 32 29 28 26 25 23 22 21 20 20 19 18
41 44 46 48 48 46 44 43 43 43 44 45 45 44 44 45 45 46 47 47 46 45 44 44 43 42 41 39 37 35 33 31 29 27 25 24 22 22 20 19 19 18
44 47 48 47 45 44 42 42 43 44 45 45 45 45 46 47 47 46 45 45 45 45 44 44 43 42 41 40 38 35 33 31 30 28 26 25 23 22 21 19 19 18
44 45 44 42 41 41 42 43 44 44 44 44 45 46 46 46 47 47 45 44 43 43 43 43 43 42 42 41 38 36 34 32 30 28 27 26 24 22 21 19 19 18
42 41 40 40 41 42 43 44 44 43 43 44 44 45 45 45 45 45 46 45 44 43 43 43 43 43 42 41 38 36 34 32 30 29 27 26 24 22 21 19 18 17
38 38 38 40 41 42 42 42 42 41 42 42 42 43 43 44 45 45 45 46 46 45 44 43 43 43 42 40 37 35 34 33 32 30 28 26 25 23 21 19 18 17
37 37 38 39 40 40 40 40 40 40 41 41 42 43 44 44 45 46 46 46 45 44 44 44 44 43 42 39 37 35 34 33 33 31 29 27 26 23 22 19 17 16
37 37 37 38 39 40 40 40 41 42 43 44 44 44 44 45 45 45 45 45 44 44 44 43 43 43 41 39 37 36 35 33 32 31 30 28 26 23 21 19 17 17
35 36 37 38 39 39 39 40 42 43 43 43 43 43 43 44 44 44 44 44 45 44 43 42 43 42 40 38 37 36 35 34 32 31 29 27 25 22 20 19 18 17
35 37 37 37 38 38 39 40 41 41 41 41 41 43 44 43 43 44 44 44 43 43 41 41 42 41 39 37 35 34 33 32 31 29 26 24 22 20 19 19 17 15
37 37 37 37 37 38 38 39 40 40 40 40 40 40 40 40 41 42 43 43 42 41 40 39 40 40 38 35 34 32 31 30 29 27 25 23 22 20 19 17 15 14
36 36 36 36 36 38 38 39 39 39 39 39 39 38 38 39 40 41 42 43 42 42 41 39 40 40 38 35 34 33 32 30 28 26 24 23 22 20 18 16 15 15
33 34 34 34 35 37 38 37 37 37 38 40 40 40 39 39 39 38 39 41 42 43 43 41 41 40 37 35 34 33 32 32 29 27 25 24 23 21 18 17 15 14
26 28 30 32 34 36 35 35 35 35 36 38 38 38 37 37 37 36 36 38 39 41 41 39 40 39 36 33 33 31 31 32 30 27 26 24 23 21 18 16 14 11
24 26 28 29 29 29 29 30 31 31 33 35 34 34 33 34 34 35 35 35 37 38 38 37 39 38 34 31 31 30 30 32 31 28 27 25 23 21 18 16 13 11
Wind_Direction
215 215 215 215 215 214 212 210 208 207 208 207 208 209 210 211 211 210 210 210 209 207 205 204 203 202 202 202 203 203 203 202 202 202 203 203 205 209 213 219 224 228
215 216 217 217 218 217 215 213 210 208 209 209 210 210 211 211 211 210 209 209 208 208 205 203 202 202 202 202 202 202 201 201 202 204 206 206 207 211 215 219 223 227
215 216 216 218 219 218 217 214 211 210 210 210 210 211 211 211 210 209 209 208 208 207 205 203 202 202 203 203 203 203 203 204 204 204 206 207 209 212 214 218 222 225
216 216 217 218 219 219 218 215 213 211 209 209 210 210 210 210 209 208 208 208 208 206 204 202 202 202 203 203 203 203 203 205 205 205 206 206 208 211 212 216 221 225
217 217 217 218 219 219 217 217 216 212 209 209 209 209 209 209 208 208 207 207 207 206 203 202 202 202 202 202 202 203 203 203 204 205 206 205 205 207 210 214 218 225
218 218 218 218 217 217 217 218 217 214 211 210 208 207 208 208 208 208 207 206 205 204 202 201 201 202 202 202 203 204 204 204 203 204 205 203 203 204 208 213 218 223
218 218 218 217 216 215 217 218 218 216 214 210 208 208 207 207 207 207 207 205 203 203 202 201 201 201 201 202 203 204 204 204 203 203 203 201 201 203 207 212 218 223
218 218 216 216 215 215 216 217 218 217 214 211 209 209 207 207 207 206 205 203 202 202 201 201 201 201 201 202 203 203 202 202 203 202 201 200 200 203 208 212 218 224
217 216 215 214 214 214 216 217 217 216 214 212 210 208 207 207 206 205 203 202 201 201 200 201 201 201 202 203 203 203 202 201 202 201 202 202 202 204 208 212 217 224
217 215 213 213 214 215 216 216 215 213 212 212 211 208 206 205 205 204 203 201 200 200 199 199 199 200 202 203 203 204 203 202 201 201 203 204 204 206 207 212 218 223
216 214 213 214 215 216 216 215 213 211 211 210 209 208 207 204 203 203 202 201 201 200 199 198 199 200 201 202 203 204 203 203 202 202 203 203 204 206 208 212 218 224
214 212 213 215 216 216 215 213 211 209 209 208 208 207 205 203 202 202 201 202 201 201 200 199 199 200 202 202 203 202 201 202 202 201 201 201 203 206 209 214 218 223
213 213 214 215 215 215 213 211 209 208 208 207 206 205 203 202 202 201 201 202 201 201 200 200 200 201 202 203 202 201 199 200 200 199 199 200 204 207 209 214 220 223
214 215 216 215 214 213 211 209 208 208 207 206 204 203 203 202 201 201 201 201 201 202 201 201 201 201 202 202 201 200 199 199 199 197 198 199 202 207 210 213 220 224
216 216 215 214 212 210 208 208 207 206 205 203 202 202 202 202 201 200 200 199 200 201 201 201 201 201 202 202 200 199 198 199 198 197 198 200 201 205 209 213 218 224
217 215 213 211 209 208 207 206 205 203 202 201 201 201 200 200 199 199 199 199 199 200 200 200 201 202 203 203 202 200 199 197 197 197 198 200 201 201 205 211 217 224
215 212 210 209 208 206 206 204 202 200 199 199 198 198 198 198 197 197 198 199 199 199 200 200 201 203 203 203 202 201 200 197 196 196 196 198 200 200 202 208 214 220
212 210 208 207 206 205 203 201 199 198 197 197 197 197 197 196 197 197 198 199 199 199 200 200 201 203 202 201 200 200 200 199 195 195 195 196 199 201 202 205 208 211
210 207 206 205 204 203 200 198 196 196 196 197 197 196 195 195 196 197 197 198 198 199 200 200 201 202 200 199 199 198 198 197 195 194 195 196 199 201 202 201 202 204
207 206 205 204 202 200 197 196 195 195 196 196 195 194 194 194 195 195 196 198 199 199 199 200 201 200 198 196 195 196 196 196 194 194 195 197 199 199 199 199 200 203
205 204 203 202 199 197 195 195 195 195 195 194 193 193 194 194 194 195 196 197 198 198 198 199 201 199 194 192 191 190 192 192 192 192 192 194 196 195 197 199 199 202
205 203 201 199 196 194 194 195 195 194 193 192 192 193 194 194 195 195 196 196 197 198 197 199 201 196 190 190 189 185 186 188 189 189 188 190 192 192 195 200 203 207
206 202 200 198 194 193 194 195 194 193 193 191 189 190 192 194 195 195 196 196 196 197 197 198 199 194 189 189 188 184 184 186 185 186 187 190 192 192 196 203 211 215
208 204 201 197 194 195 196 195 193 193 192 191 190 190 192 193 194 194 195 197 197 197 198 199 197 191 187 188 187 184 184 184 184 184 186 190 191 195 204 211 212 215
214 208 204 200 199 199 197 194 193 192 191 191 191 191 191 192 192 193 194 197 199 199 199 199 195 189 186 188 185 183 185 185 183 182 183 186 191 196 205 211 208 209
217 211 208 205 203 202 198 195 193 191 189 189 190 190 190 190 191 193 194 196 198 199 199 199 194 187 184 186 184 183 186 186 184 183 182 184 190 194 197 203 205 207